When you browse on this site, cookies collect data to enhance your experience and personalize the content and advertising you see.
Visit our Privacy Policy to learn more. By continuing to use the site, you agree to this use of cookies and data.

Hourly Weather San Vicente de Chucuri

Today, 7 July, Tuesday

Time Temperature Precipitation Wind Pressure Humidity
00:00 +23°C° 0.1 mm 1 mps 699 mmHg 77%
01:00 +23°C° 0.1 mm 1 mps 699 mmHg 76%
02:00 +22°C° 0.1 mm 1 mps 698 mmHg 77%
03:00 +22°C° 0.1 mm 1 mps 698 mmHg 78%
04:00 +22°C° 0.1 mm 1 mps 698 mmHg 79%
05:00 +22°C° 0 mm 1 mps 698 mmHg 79%
06:00 +23°C° 0 mm 1 mps 699 mmHg 79%
07:00 +24°C° 0 mm 1 mps 699 mmHg 79%
08:00 +25°C° 0 mm 1 mps 699 mmHg 77%
09:00 +26°C° 0 mm 1 mps 700 mmHg 74%
10:00 +27°C° 0 mm 1 mps 700 mmHg 72%
11:00 +28°C° 0 mm 1 mps 699 mmHg 69%
12:00 +28°C° 0 mm 1 mps 699 mmHg 67%
13:00 +29°C° 0 mm 1 mps 699 mmHg 65%
14:00 +29°C° 0.1 mm 1 mps 698 mmHg 66%
15:00 +29°C° 0.1 mm 1 mps 697 mmHg 67%
16:00 +26°C° 0.1 mm 0 mps 696 mmHg 68%
17:00 +25°C° 0.5 mm 0 mps 696 mmHg 75%
18:00 +24°C° 0.5 mm 0 mps 697 mmHg 82%
19:00 +22°C° 0.5 mm 0 mps 697 mmHg 88%
20:00 +24°C° 0.1 mm 1 mps 697 mmHg 88%
21:00 +24°C° 0.1 mm 1 mps 698 mmHg 88%
22:00 +23°C° 0.1 mm 1 mps 699 mmHg 87%
23:00 +23°C° 0.5 mm 1 mps 698 mmHg 87%

Tomorrow, 8 July, Wednesday

Time Temperature Precipitation Wind Pressure Humidity
00:00 +23°C° 0.5 mm 1 mps 698 mmHg 88%
01:00 +22°C° 0.5 mm 1 mps 698 mmHg 88%
02:00 +22°C° 1 mm 1 mps 698 mmHg 89%
03:00 +22°C° 1 mm 1 mps 697 mmHg 90%
04:00 +21°C° 1 mm 1 mps 697 mmHg 91%
05:00 +22°C° 0.2 mm 1 mps 698 mmHg 91%
06:00 +22°C° 0.2 mm 1 mps 698 mmHg 90%
07:00 +23°C° 0.2 mm 1 mps 698 mmHg 89%
08:00 +25°C° 0 mm 1 mps 698 mmHg 82%
09:00 +27°C° 0 mm 1 mps 699 mmHg 75%
10:00 +28°C° 0 mm 1 mps 699 mmHg 67%
11:00 +29°C° 0.2 mm 1 mps 698 mmHg 69%
12:00 +29°C° 0.2 mm 1 mps 697 mmHg 71%
13:00 +29°C° 0.2 mm 1 mps 697 mmHg 72%
14:00 +29°C° 0.2 mm 1 mps 696 mmHg 71%
15:00 +29°C° 0.2 mm 1 mps 696 mmHg 70%
16:00 +29°C° 0.2 mm 1 mps 695 mmHg 69%
17:00 +28°C° 1.2 mm 1 mps 696 mmHg 75%
18:00 +26°C° 1.2 mm 1 mps 696 mmHg 81%
19:00 +25°C° 1.2 mm 1 mps 697 mmHg 87%
20:00 +24°C° 2 mm 1 mps 697 mmHg 89%
21:00 +23°C° 2 mm 1 mps 697 mmHg 91%
22:00 +23°C° 2 mm 1 mps 698 mmHg 93%
23:00 +22°C° 2.3 mm 1 mps 698 mmHg 93%

Day after tomorrow, 9 July, Thursday

Time Temperature Precipitation Wind Pressure Humidity
00:00 +22°C° 2.3 mm 1 mps 698 mmHg 93%
01:00 +22°C° 2.3 mm 1 mps 698 mmHg 93%
02:00 +22°C° 1.8 mm 1 mps 697 mmHg 94%
03:00 +22°C° 1.8 mm 1 mps 697 mmHg 94%
04:00 +22°C° 1.8 mm 1 mps 697 mmHg 94%
05:00 +22°C° 0.4 mm 1 mps 698 mmHg 93%
06:00 +22°C° 0.4 mm 1 mps 698 mmHg 92%
07:00 +21°C° 0.4 mm 0 mps 699 mmHg 92%
08:00 +24°C° 0.1 mm 1 mps 699 mmHg 85%
09:00 +26°C° 0.1 mm 1 mps 699 mmHg 79%
10:00 +28°C° 0.1 mm 1 mps 699 mmHg 72%
11:00 +29°C° 0.2 mm 1 mps 698 mmHg 69%
12:00 +30°C° 0.2 mm 1 mps 698 mmHg 67%
13:00 +30°C° 0.2 mm 2 mps 697 mmHg 64%
14:00 +30°C° 0.2 mm 1 mps 697 mmHg 65%
15:00 +30°C° 0.2 mm 1 mps 696 mmHg 67%
16:00 +29°C° 0.2 mm 1 mps 696 mmHg 68%
17:00 +28°C° 1 mm 1 mps 696 mmHg 75%
18:00 +26°C° 1 mm 1 mps 696 mmHg 82%
19:00 +25°C° 1 mm 1 mps 697 mmHg 89%
20:00 +24°C° 0.3 mm 1 mps 697 mmHg 89%
21:00 +24°C° 0.3 mm 1 mps 698 mmHg 88%
22:00 +23°C° 0.3 mm 1 mps 698 mmHg 88%
23:00 +23°C° 1.3 mm 1 mps 698 mmHg 89%

10 July, Friday

Time Temperature Precipitation Wind Pressure Humidity
00:00 +23°C° 1.3 mm 1 mps 698 mmHg 89%
01:00 +22°C° 1.3 mm 1 mps 698 mmHg 90%
02:00 +22°C° 1.9 mm 1 mps 698 mmHg 92%
03:00 +22°C° 1.9 mm 1 mps 698 mmHg 93%
04:00 +21°C° 1.9 mm 1 mps 698 mmHg 94%
05:00 +22°C° 0.5 mm 1 mps 698 mmHg 93%
06:00 +20°C° 0.5 mm 0 mps 699 mmHg 92%
07:00 +21°C° 0.5 mm 0 mps 699 mmHg 91%
08:00 +24°C° 0.1 mm 1 mps 699 mmHg 85%
09:00 +26°C° 0.1 mm 1 mps 699 mmHg 78%
10:00 +28°C° 0.1 mm 1 mps 700 mmHg 71%
11:00 +28°C° 0.2 mm 1 mps 699 mmHg 70%
12:00 +29°C° 0.2 mm 1 mps 698 mmHg 69%
13:00 +30°C° 0.2 mm 1 mps 698 mmHg 67%
14:00 +29°C° 0 mm 1 mps 697 mmHg 68%
15:00 +29°C° 0 mm 1 mps 697 mmHg 69%
16:00 +29°C° 0 mm 1 mps 696 mmHg 69%
17:00 +27°C° 1 mm 1 mps 697 mmHg 76%
18:00 +26°C° 1 mm 1 mps 697 mmHg 83%
19:00 +24°C° 1 mm 1 mps 697 mmHg 90%
20:00 +24°C° 0.7 mm 1 mps 698 mmHg 89%
21:00 +24°C° 0.7 mm 1 mps 698 mmHg 89%
22:00 +23°C° 0.7 mm 1 mps 699 mmHg 89%
23:00 +23°C° 1.2 mm 1 mps 699 mmHg 90%

11 July, Saturday

Time Temperature Precipitation Wind Pressure Humidity
00:00 +23°C° 1.2 mm 1 mps 698 mmHg 92%
01:00 +22°C° 1.2 mm 1 mps 698 mmHg 93%
02:00 +20°C° 0.6 mm 0 mps 698 mmHg 94%
03:00 +20°C° 0.6 mm 0 mps 698 mmHg 94%
04:00 +20°C° 0.6 mm 0 mps 697 mmHg 95%
05:00 +20°C° 0.2 mm 0 mps 698 mmHg 94%
06:00 +21°C° 0.2 mm 0 mps 698 mmHg 93%
07:00 +23°C° 0.2 mm 1 mps 698 mmHg 92%
08:00 +24°C° 0.3 mm 1 mps 698 mmHg 86%
09:00 +26°C° 0.3 mm 1 mps 699 mmHg 81%
10:00 +27°C° 0.3 mm 1 mps 699 mmHg 75%
11:00 +28°C° 0.5 mm 1 mps 698 mmHg 72%
12:00 +29°C° 0.5 mm 1 mps 698 mmHg 69%
13:00 +30°C° 0.5 mm 1 mps 697 mmHg 66%
14:00 +30°C° 0.4 mm 1 mps 697 mmHg 67%
15:00 +29°C° 0.4 mm 1 mps 697 mmHg 68%
16:00 +29°C° 0.4 mm 1 mps 696 mmHg 68%
17:00 +28°C° 1.2 mm 1 mps 696 mmHg 75%
18:00 +26°C° 1.2 mm 1 mps 697 mmHg 83%
19:00 +25°C° 1.2 mm 1 mps 697 mmHg 90%
20:00 +24°C° 1 mm 1 mps 697 mmHg 91%
21:00 +23°C° 1 mm 1 mps 698 mmHg 92%
22:00 +22°C° 1 mm 1 mps 698 mmHg 93%
23:00 +22°C° 1.1 mm 1 mps 698 mmHg 93%

12 July, Sunday

Time Temperature Precipitation Wind Pressure Humidity
00:00 +20°C° 1.1 mm 0 mps 698 mmHg 93%
01:00 +20°C° 1.1 mm 0 mps 698 mmHg 93%
02:00 +20°C° 0.7 mm 0 mps 698 mmHg 93%
03:00 +20°C° 0.7 mm 0 mps 697 mmHg 94%
04:00 +20°C° 0.7 mm 0 mps 697 mmHg 94%
05:00 +20°C° 0.5 mm 0 mps 698 mmHg 94%
06:00 +20°C° 0.5 mm 0 mps 698 mmHg 94%
07:00 +21°C° 0.5 mm 0 mps 699 mmHg 93%
08:00 +22°C° 0.3 mm 0 mps 699 mmHg 89%
09:00 +25°C° 0.3 mm 1 mps 699 mmHg 85%
10:00 +26°C° 0.3 mm 1 mps 699 mmHg 81%
11:00 +27°C° 0.4 mm 1 mps 699 mmHg 78%
12:00 +28°C° 0.4 mm 1 mps 698 mmHg 75%
13:00 +29°C° 0.4 mm 1 mps 697 mmHg 72%
14:00 +29°C° 0.2 mm 1 mps 697 mmHg 71%
15:00 +29°C° 0.2 mm 1 mps 697 mmHg 71%
16:00 +28°C° 0.2 mm 1 mps 696 mmHg 71%
17:00 +27°C° 1.3 mm 1 mps 697 mmHg 78%
18:00 +26°C° 1.3 mm 1 mps 697 mmHg 85%
19:00 +24°C° 1.3 mm 1 mps 697 mmHg 92%
20:00 +24°C° 4.1 mm 1 mps 698 mmHg 93%
21:00 +23°C° 4.1 mm 1 mps 698 mmHg 95%
22:00 +23°C° 4.1 mm 1 mps 699 mmHg 96%
23:00 +20°C° 0.5 mm 0 mps 699 mmHg 96%
Show more